Location: Amsterdam
(30.7274°N, 84.4357°W)
Time: 14:51:59
(UTC+00:00)

Altair - All Passes

Search period start: 14 May 2025 00:00
Search period end: 24 May 2025 00:00
Orbit: 1501 x 1682 km, 47.2° (Epoch: 13 May)

Date Brightness Start Highest point End Pass type
(mag) Time Alt. Az. Time Alt. Az. Time Alt. Az.
14 May - 12:14:41 10° SSW 12:23:48 46° SE 12:33:11 10° ENE daylight
14 May - 14:18:40 10° WSW 14:28:28 61° NNW 14:38:31 10° NE daylight
14 May - 16:26:28 10° WNW 16:35:14 32° N 16:44:03 10° NE daylight
14 May - 18:33:44 10° NW 18:42:54 36° NNE 18:51:54 10° E daylight
14 May - 20:38:52 10° NW 20:49:04 79° NE 20:58:56 10° SE daylight
14 May - 22:44:56 10° WNW 22:53:11 30° SW 23:01:14 10° S daylight
15 May - 11:49:45 10° SSW 11:58:38 41° SE 12:07:46 10° ENE daylight
15 May - 13:53:20 10° WSW 14:03:09 65° NW 14:13:15 10° NE daylight
15 May - 16:00:57 10° WNW 16:09:46 33° NNW 16:18:40 10° NE daylight
15 May - 18:08:23 10° NW 18:17:26 35° NNE 18:26:24 10° ENE daylight
15 May - 20:13:36 10° NW 20:23:47 74° NE 20:33:39 10° ESE daylight
15 May - 22:19:25 10° WNW 22:28:03 34° SW 22:36:27 10° S daylight
16 May - 11:24:51 10° SSW 11:33:28 37° SE 11:42:19 10° ENE daylight
16 May - 13:28:00 10° WSW 13:37:50 70° NW 13:47:59 10° NE daylight
16 May - 15:35:27 10° WNW 15:44:19 34° NNW 15:53:17 10° NE daylight
16 May - 17:43:01 10° NW 17:52:00 34° NNE 18:00:53 10° ENE daylight
16 May - 19:48:19 10° NW 19:58:29 69° NE 20:08:22 10° ESE daylight
16 May - 21:53:57 10° WNW 22:02:53 38° SW 22:11:35 10° SSE daylight
17 May - 11:00:00 10° S 11:08:18 33° SE 11:16:50 10° ENE daylight
17 May - 13:02:42 10° WSW 13:12:32 75° NW 13:22:42 10° NE daylight
17 May - 15:09:55 10° WNW 15:18:51 35° NNW 15:27:55 10° NE daylight
17 May - 17:17:39 10° NW 17:26:32 33° N 17:35:21 10° ENE daylight
17 May - 19:23:02 10° NW 19:33:10 65° NE 19:43:02 10° ESE daylight
17 May - 21:28:30 10° WNW 21:37:43 42° SW 21:46:41 10° SSE daylight
18 May - 10:35:13 10° S 10:43:09 30° SE 10:51:19 10° ENE daylight
18 May - 12:37:26 10° SW 12:47:15 80° NW 12:57:25 10° NE daylight
18 May - 14:44:26 10° W 14:53:24 36° NNW 15:02:34 10° NE daylight
18 May - 16:52:15 10° NW 17:01:03 32° N 17:09:51 10° ENE daylight
18 May - 18:57:46 10° NW 19:07:51 61° NNE 19:17:40 10° ESE daylight
18 May - 21:03:05 10° WNW 21:12:32 46° SW 21:21:43 10° SSE daylight
19 May - 10:10:29 10° S 10:18:01 26° SE 10:25:45 10° ENE visible
19 May - 12:12:12 10° SW 12:21:59 86° NW 12:32:08 10° NE daylight
19 May - 14:18:56 10° W 14:27:59 37° NNW 14:37:13 10° NE daylight
19 May - 16:26:51 10° NW 16:35:35 31° N 16:44:19 10° ENE daylight
19 May - 18:32:30 10° NW 18:42:30 57° NNE 18:52:18 10° ESE daylight
19 May - 20:37:42 10° WNW 20:47:20 51° SW 20:56:44 10° SSE daylight
20 May - 09:45:49 10° S 09:52:53 23° SE 10:00:07 10° ENE visible
20 May - 11:46:59 10° SW 11:56:43 88° SE 12:06:51 10° NE daylight
20 May - 13:53:27 10° W 14:02:33 39° NNW 14:11:54 10° NE daylight
20 May - 16:01:26 10° NW 16:10:06 31° N 16:18:49 10° ENE daylight
20 May - 18:07:13 10° NW 18:17:09 53° NNE 18:26:54 10° ESE daylight
20 May - 20:12:20 10° WNW 20:22:08 56° SW 20:31:42 10° SSE daylight
20 May - 22:24:14 10° WSW 22:25:30 10° WSW 22:26:45 10° SW daylight
21 May - 09:21:16 10° SSE 09:27:46 21° ESE 09:34:24 10° E visible
21 May - 11:21:48 10° SW 11:31:29 82° SE 11:41:33 10° NE daylight
21 May - 13:27:58 10° W 13:37:09 41° NNW 13:46:35 10° NE daylight
21 May - 15:36:01 10° NW 15:44:37 31° N 15:53:18 10° ENE daylight
21 May - 17:41:58 10° NW 17:51:47 50° NNE 18:01:29 10° ESE daylight
21 May - 19:46:59 10° WNW 19:56:56 61° SW 20:06:38 10° SSE daylight
21 May - 21:56:44 10° W 22:00:23 12° WSW 22:04:00 10° SW daylight
22 May - 08:56:49 10° SSE 09:02:39 18° ESE 09:08:35 10° E visible
22 May - 10:56:38 10° SW 11:06:15 76° SE 11:16:14 10° NE daylight
22 May - 13:02:31 10° W 13:11:45 43° NNW 13:21:16 10° NE daylight
22 May - 15:10:35 10° WNW 15:19:09 30° N 15:27:48 10° ENE daylight
22 May - 17:16:41 10° NW 17:26:24 47° NNE 17:36:02 10° E daylight
22 May - 19:21:40 10° NW 19:31:43 67° SW 19:41:32 10° SE daylight
22 May - 21:30:20 10° W 21:35:15 15° WSW 21:40:08 10° SSW daylight
23 May - 08:32:32 10° SSE 08:37:32 15° ESE 08:42:36 10° E visible
23 May - 10:31:31 10° SW 10:41:02 70° SE 10:50:56 10° NE daylight
23 May - 12:37:05 10° W 12:46:22 45° NNW 12:55:57 10° NE daylight
23 May - 14:45:08 10° WNW 14:53:40 30° N 15:02:19 10° ENE daylight
23 May - 16:51:24 10° NW 17:01:01 45° NNE 17:10:34 10° E daylight
23 May - 18:56:21 10° NW 19:06:29 73° SW 19:16:24 10° SE daylight
23 May - 21:04:17 10° W 21:10:08 17° WSW 21:15:55 10° SSW daylight
